TimeEST,TemperatureF,Dew PointF,Humidity,Sea Level PressureIn,VisibilityMPH,Wind Direction,Wind SpeedMPH,Gust SpeedMPH,PrecipitationIn,Events,Conditions,WindDirDegrees,DateUTC
12:53 AM,63.0,57.9,84,30.32,10.0,NNW,8.1,-,N/A,,Mostly Cloudy,340,2012-11-11 05:53:00
1:53 AM,62.1,57.9,86,30.30,10.0,North,4.6,-,N/A,,Mostly Cloudy,350,2012-11-11 06:53:00
2:53 AM,62.1,57.9,86,30.30,10.0,North,4.6,-,N/A,,Mostly Cloudy,10,2012-11-11 07:53:00
3:53 AM,63.0,59.0,87,30.29,10.0,North,5.8,-,N/A,,Mostly Cloudy,350,2012-11-11 08:53:00
4:53 AM,62.1,57.9,86,30.29,10.0,Calm,Calm,-,N/A,,Scattered Clouds,0,2012-11-11 09:53:00
5:53 AM,62.1,57.0,84,30.30,10.0,North,6.9,-,N/A,,Partly Cloudy,350,2012-11-11 10:53:00
6:53 AM,60.1,55.9,86,30.31,10.0,Calm,Calm,-,N/A,,Scattered Clouds,0,2012-11-11 11:53:00
7:53 AM,63.0,57.9,84,30.33,10.0,NNW,6.9,-,N/A,,Mostly Cloudy,340,2012-11-11 12:53:00
8:53 AM,66.0,59.0,78,30.35,10.0,North,8.1,-,N/A,,Mostly Cloudy,350,2012-11-11 13:53:00
9:53 AM,73.0,57.9,59,30.35,10.0,ENE,9.2,-,N/A,,Partly Cloudy,60,2012-11-11 14:53:00
10:53 AM,77.0,51.1,40,30.34,10.0,East,13.8,-,N/A,,Scattered Clouds,100,2012-11-11 15:53:00
11:53 AM,77.0,54.0,45,30.33,10.0,East,16.1,-,N/A,,Mostly Cloudy,100,2012-11-11 16:53:00
12:53 PM,77.0,53.1,43,30.31,10.0,ESE,16.1,-,N/A,,Scattered Clouds,110,2012-11-11 17:53:00
1:53 PM,78.1,50.0,37,30.30,10.0,East,13.8,-,N/A,,Mostly Cloudy,100,2012-11-11 18:53:00
2:53 PM,77.0,52.0,42,30.30,10.0,ESE,12.7,-,N/A,,Scattered Clouds,110,2012-11-11 19:53:00
3:53 PM,75.9,53.1,45,30.30,10.0,East,15.0,-,N/A,,Partly Cloudy,100,2012-11-11 20:53:00
4:53 PM,73.9,57.0,55,30.29,10.0,East,15.0,-,N/A,,Scattered Clouds,90,2012-11-11 21:53:00
5:53 PM,72.0,59.0,64,30.29,10.0,ENE,6.9,-,N/A,,Scattered Clouds,70,2012-11-11 22:53:00
6:43 PM,71.6,60.8,69,30.32,9.0,East,5.8,-,0.00,Rain,Light Rain,80,2012-11-11 23:43:00
6:53 PM,70.0,62.1,76,30.30,10.0,ENE,4.6,-,0.00,,Mostly Cloudy,60,2012-11-11 23:53:00
7:53 PM,70.0,61.0,73,30.30,10.0,ENE,5.8,-,N/A,,Partly Cloudy,70,2012-11-12 00:53:00
8:53 PM,69.1,61.0,75,30.30,10.0,ENE,3.5,-,N/A,,Partly Cloudy,70,2012-11-12 01:53:00
9:53 PM,68.0,62.1,81,30.30,10.0,ENE,3.5,-,N/A,,Clear,70,2012-11-12 02:53:00
10:53 PM,66.9,62.1,84,30.30,10.0,NNE,4.6,-,N/A,,Scattered Clouds,20,2012-11-12 03:53:00
11:53 PM,66.0,63.0,90,30.27,10.0,ESE,6.9,-,0.00,,Partly Cloudy,110,2012-11-12 04:53:00